Weather History for Sioux City, IA

Change the Weather History Date:

Wednesday, October 23, 2013

  Actual Average Record
Temperature  
Mean Temperature 36 °F 48 °F  
Max Temperature 43 °F 60 °F 83 °F (1899)
Min Temperature 29 °F 36 °F 15 °F (1895)
Degree Days  
Heating Degree Days 29 17  
Month to date heating degree days 280 300  
Since 1 July heating degree days 345 447  
Cooling Degree Days 0 0  
Month to date cooling degree days 7 8  
Year to date cooling degree days 960 869  
Moisture  
Dew Point 35 °F    
Average Humidity 82    
Maximum Humidity 100    
Minimum Humidity 64    
Precipitation  
Precipitation 0.11 in 0.05 in 1.12 in (1906)
Month to date precipitation 3.63 1.73  
Year to date precipitation 25.20 25.23  
Snow  
Snow T in 0.10 in 2.50 in (2002)
Month to date snowfall T 0.5  
Since 1 July snowfall T 0.5  
Since 1 September snowfall T 0.5  
Snow Depth 0.00 in    
Sea Level Pressure  
Sea Level Pressure 30.13 in    
Wind  
Wind Speed 6 mph (NW)    
Max Wind Speed 18 mph    
Max Gust Speed 24 mph    
Visibility 9 miles    
Events Rain    
T = Trace of Precipitation, MM = Missing Value Source: NWS Daily Summary

Daily Weather History Graph

Daily Weather History Graph

Search for Another Location

Airport:

Trip Planner

Search our weather history database for the weather conditions in past years. The results will help you decide how hot, cold, wet, or windy it might be!

Date:

Astronomy

Oct. 23, 2013 Rise Set
Actual Time 7:48 AM CDT 6:30 PM CDT
Civil Twilight 7:19 AM CDT 6:59 PM CDT
Nautical Twilight 6:46 AM CDT 7:32 PM CDT
Astronomical Twilight 6:14 AM CDT 8:04 PM CDT
Moon 9:59 PM CDT 12:09 PM CDT
Length of Visible Light 11h 39m
Length of Day
10h 42m
Waning Gibbous, 79% of the Moon is Illuminated
Oct 23
Waning Gibbous
Oct 26
Last Quarter
Nov 3
New
Nov 9
First Quarter
Nov 17
Full

Hourly Weather History & Observations

Time (CDT) Temp. Windchill Dew Point Humidity Pressure Visibility Wind Dir Wind Speed Gust Speed Precip Events Conditions
12:52 AM 33.1 °F 28.7 °F 32.0 °F 96% 30.14 in 10.0 mi West 4.6 mph - N/A   Clear
1:52 AM 32.0 °F - 30.9 °F 96% 30.14 in 10.0 mi Calm Calm - N/A   Clear
2:52 AM 30.9 °F - 30.0 °F 96% 30.14 in 10.0 mi Calm Calm - N/A   Clear
3:52 AM 28.9 °F 23.9 °F 28.9 °F 100% 30.13 in 9.0 mi West 4.6 mph - N/A   Clear
4:52 AM 32.0 °F 28.7 °F 30.0 °F 92% 30.13 in 10.0 mi West 3.5 mph - N/A   Mostly Cloudy
5:52 AM 32.0 °F - 30.0 °F 92% 30.12 in 10.0 mi Calm Calm - N/A   Overcast
6:52 AM 34.0 °F - 32.0 °F 92% 30.13 in 10.0 mi Calm Calm - N/A   Overcast
7:52 AM 34.0 °F 31.0 °F 33.1 °F 96% 30.12 in 10.0 mi South 3.5 mph - N/A   Overcast
8:52 AM 35.1 °F 30.1 °F 33.1 °F 92% 30.11 in 10.0 mi ESE 5.8 mph - N/A   Overcast
9:52 AM 36.0 °F 32.1 °F 35.1 °F 97% 30.10 in 8.0 mi SSE 4.6 mph - 0.00 in   Overcast
10:24 AM 37.4 °F 32.8 °F 35.6 °F 93% 30.07 in 10.0 mi South 5.8 mph - 0.01 in Rain Light Rain
10:29 AM 37.4 °F 32.8 °F 35.6 °F 93% 30.07 in 10.0 mi SSW 5.8 mph - 0.01 in Rain Light Rain
10:52 AM 37.9 °F - 36.0 °F 93% 30.10 in 6.0 mi Calm Calm - 0.01 in Rain Light Rain
11:25 AM 37.4 °F - 37.4 °F 100% 30.08 in 2.5 mi Calm Calm - 0.02 in Rain Light Rain
11:39 AM 37.4 °F - 37.4 °F 100% 30.08 in 2.5 mi Calm Calm - 0.03 in Rain Light Rain
11:52 AM 37.9 °F - 37.0 °F 97% 30.11 in 4.0 mi Calm Calm - 0.04 in Rain Light Rain
12:40 PM 39.2 °F - 37.4 °F 93% 30.09 in 5.0 mi Calm Calm - 0.04 in Rain Light Rain
12:52 PM 39.9 °F 36.7 °F 37.9 °F 93% 30.12 in 7.0 mi NW 4.6 mph - 0.05 in Rain Light Rain
1:05 PM 39.2 °F 35.9 °F 37.4 °F 93% 30.09 in 8.0 mi NNW 4.6 mph - 0.00 in Rain Light Rain
1:14 PM 39.2 °F 37.0 °F 37.4 °F 93% 30.09 in 6.0 mi NW 3.5 mph - 0.00 in Rain Light Rain
1:52 PM 41.0 °F 36.4 °F 37.9 °F 89% 30.11 in 10.0 mi NW 6.9 mph - 0.01 in Rain Light Rain
2:15 PM 42.8 °F 38.0 °F 39.2 °F 87% 30.08 in 10.0 mi NNW 8.1 mph - 0.00 in Rain Light Rain
2:52 PM 42.1 °F 36.6 °F 39.0 °F 89% 30.11 in 10.0 mi NNW 9.2 mph - 0.00 in   Overcast
3:13 PM 42.8 °F 37.0 °F 37.4 °F 81% 30.09 in 10.0 mi NNW 10.4 mph - N/A   Overcast
3:21 PM 42.8 °F 37.0 °F 39.2 °F 87% 30.09 in 10.0 mi NNW 10.4 mph - N/A   Overcast
3:52 PM 43.0 °F 37.2 °F 39.0 °F 86% 30.13 in 10.0 mi NNW 10.4 mph - N/A   Overcast
4:52 PM 42.1 °F 35.2 °F 36.0 °F 79% 30.15 in 10.0 mi North 12.7 mph - N/A   Overcast
5:52 PM 42.1 °F 36.1 °F 35.1 °F 76% 30.17 in 10.0 mi North 10.4 mph - N/A   Overcast
6:03 PM 42.8 °F 36.6 °F 35.6 °F 76% 30.13 in 10.0 mi North 11.5 mph - N/A   Overcast
6:52 PM 41.0 °F 35.8 °F 35.1 °F 79% 30.18 in 10.0 mi NW 8.1 mph - N/A   Overcast
7:52 PM 41.0 °F 36.4 °F 35.1 °F 79% 30.19 in 10.0 mi NNW 6.9 mph - N/A   Overcast
8:52 PM 39.9 °F 33.4 °F 33.1 °F 77% 30.20 in 10.0 mi NNW 10.4 mph - N/A   Overcast
9:52 PM 39.9 °F 33.4 °F 32.0 °F 73% 30.22 in 10.0 mi NNE 10.4 mph - N/A   Overcast
10:52 PM 39.0 °F 34.0 °F 28.9 °F 67% 30.24 in 10.0 mi North 6.9 mph - N/A   Overcast
11:52 PM 35.1 °F 31.0 °F 28.9 °F 78% 30.25 in 10.0 mi WNW 4.6 mph - N/A   Partly Cloudy